Voltar ao catálogo

COSMOS 2251 DEB

AtivoLEO
NORAD 33792·DEBRIS·🇷🇺 Russia

Lançado Jun 16, 1993 de Plesetsk Cosmodrome

Loading…

Próximas Passagens (próximas 24 horas)

TLE

AtualizadoSource: Space-Track

Época: Sep 14, 2026, 07:05 UTC

1 33792U 93036AH  26257.29573645  .00000454  00000-0  45240-3 0  9999
2 33792  73.8972 265.0590 0432499 280.9487  88.2739 13.46226854861506

Acompanhe COSMOS 2251 DEB em tempo real com AllMySat

Download on the App Store